Location: Rioux
(40.7500°S, 175.7500°E)
Time: 10:28:14
(UTC+00:00)

OAO 3 Rocket - Pass Details

Date: 12 June 2024
Orbit: 622 x 670 km, 35.0° (Epoch: 20 July)

Event Time Altitude Azimuth Distance (km) Brightness Sun altitude
Exits shadow 17:14:50 42° 1° (N) 960 4.0 -26.4°
Drops below altitude 10° 17:19:19 10° 66° (ENE) 2,098 6.7 -25.5°
Sets 17:21:46 0° 72° (ENE) 3,004 7.9 -25.1°
